^^
Station Historical Data
 
Daily Summary for June 12, 2021 Units:  English    Metric   Both
Daily Weekly Monthly Yearly
  Current: High: Low: Average:
Temperature: 69.7 °F 71.3 °F 60.2 °F 63.9 °F
Dew Point: 62.5 °F 63.9 °F 56.9 °F 59.3 °F
Humidity: 78% 91% 75% 85%
Wind Speed: 3mph 5mph 1mph 2.7mph
Wind Gust: 3mph 8mph - -
WindENE - - East
Pressure: 29.80 in 29.87 in 29.80 in -
Precipitation: 0.00 in      
 
 
Tabular Data for June 12, 2021
Time Temperature Dew Point Pressure Wind Wind Speed Wind Gust Humidity Rainfall Rate (Hourly) solar
00:00 60.7 °F 57.1 °F 29.86 in NE 3 mph 3 mph 88% 0.00 in 0 W/m2
00:05 60.7 °F 57.1 °F 29.86 in East 3 mph 3 mph 88% 0.00 in 0 W/m2
00:10 60.8 °F 57.2 °F 29.86 in ENE 3 mph 3 mph 88% 0.00 in 0 W/m2
00:15 60.9 °F 57 °F 29.86 in ENE 3 mph 3 mph 87% 0.00 in 0 W/m2
00:20 60.9 °F 57 °F 29.86 in ENE 3 mph 5 mph 87% 0.00 in 0 W/m2
00:25 60.9 °F 57 °F 29.86 in ENE 3 mph 5 mph 87% 0.00 in 0 W/m2
00:30 60.9 °F 57 °F 29.86 in NE 3 mph 3 mph 87% 0.00 in 0 W/m2
00:35 61 °F 57.1 °F 29.85 in ENE 3 mph 3 mph 87% 0.00 in 0 W/m2
00:40 61.1 °F 57.2 °F 29.85 in NE 3 mph 3 mph 87% 0.00 in 0 W/m2
00:45 61.1 °F 57.2 °F 29.85 in NE 2 mph 5 mph 87% 0.00 in 0 W/m2
00:50 61.1 °F 57.2 °F 29.84 in NE 2 mph 3 mph 87% 0.00 in 0 W/m2
00:55 61.1 °F 57.2 °F 29.85 in North 3 mph 3 mph 87% 0.00 in 0 W/m2
01:00 61.1 °F 56.9 °F 29.85 in East 2 mph 3 mph 86% 0.00 in 0 W/m2
01:05 61.1 °F 57.2 °F 29.85 in ESE 2 mph 3 mph 87% 0.00 in 0 W/m2
01:10 61.1 °F 57.2 °F 29.85 in NW 2 mph 2 mph 87% 0.00 in 0 W/m2
01:15 61.1 °F 57.2 °F 29.84 in ENE 2 mph 3 mph 87% 0.00 in 0 W/m2
01:20 61.1 °F 57.2 °F 29.84 in North 2 mph 4 mph 87% 0.00 in 0 W/m2
01:25 61.1 °F 57.2 °F 29.84 in East 2 mph 4 mph 87% 0.00 in 0 W/m2
01:30 61.1 °F 57.2 °F 29.84 in ESE 3 mph 3 mph 87% 0.00 in 0 W/m2
01:35 61 °F 57.1 °F 29.84 in North 3 mph 3 mph 87% 0.00 in 0 W/m2
01:40 61 °F 57.1 °F 29.84 in NE 3 mph 4 mph 87% 0.00 in 0 W/m2
01:45 61 °F 57.1 °F 29.84 in NE 3 mph 4 mph 87% 0.00 in 0 W/m2
01:50 61 °F 57.1 °F 29.84 in SE 3 mph 4 mph 87% 0.00 in 0 W/m2
01:55 61.1 °F 57.5 °F 29.84 in East 3 mph 4 mph 88% 0.00 in 0 W/m2
02:00 61.1 °F 57.5 °F 29.83 in NE 3 mph 4 mph 88% 0.00 in 0 W/m2
02:05 61.1 °F 57.5 °F 29.83 in NE 3 mph 4 mph 88% 0.00 in 0 W/m2
02:10 61 °F 57.1 °F 29.83 in NE 2 mph 6 mph 87% 0.00 in 0 W/m2
02:15 61 °F 57.1 °F 29.83 in NE 3 mph 6 mph 87% 0.00 in 0 W/m2
02:20 60.9 °F 57.3 °F 29.83 in NNW 3 mph 6 mph 88% 0.00 in 0 W/m2
02:25 60.9 °F 57 °F 29.83 in ENE 3 mph 6 mph 87% 0.00 in 0 W/m2
02:30 60.9 °F 57 °F 29.83 in NE 3 mph 3 mph 87% 0.00 in 0 W/m2
02:35 60.9 °F 57.3 °F 29.82 in NE 3 mph 3 mph 88% 0.00 in 0 W/m2
02:40 60.9 °F 57 °F 29.82 in East 3 mph 3 mph 87% 0.00 in 0 W/m2
02:45 60.8 °F 57.2 °F 29.82 in NE 3 mph 6 mph 88% 0.00 in 0 W/m2
02:50 60.8 °F 57.2 °F 29.82 in NE 3 mph 4 mph 88% 0.00 in 0 W/m2
02:55 60.7 °F 57.1 °F 29.81 in West 3 mph 4 mph 88% 0.00 in 0 W/m2
03:00 60.7 °F 57.1 °F 29.81 in NW 3 mph 3 mph 88% 0.00 in 0 W/m2
03:05 60.7 °F 57.1 °F 29.81 in NE 3 mph 4 mph 88% 0.00 in 0 W/m2
03:10 60.6 °F 57 °F 29.81 in ENE 3 mph 3 mph 88% 0.00 in 0 W/m2
03:15 60.6 °F 57 °F 29.81 in East 3 mph 3 mph 88% 0.00 in 0 W/m2
03:20 60.5 °F 56.9 °F 29.81 in East 3 mph 4 mph 88% 0.00 in 0 W/m2
03:25 60.6 °F 57 °F 29.81 in ESE 3 mph 4 mph 88% 0.00 in 0 W/m2
03:30 60.5 °F 57.2 °F 29.81 in ENE 3 mph 3 mph 89% 0.00 in 0 W/m2
03:35 60.5 °F 57.2 °F 29.81 in NE 3 mph 3 mph 89% 0.00 in 0 W/m2
03:40 60.6 °F 57.3 °F 29.81 in NE 3 mph 3 mph 89% 0.00 in 0 W/m2
03:45 60.5 °F 57.2 °F 29.82 in NNE 2 mph 3 mph 89% 0.00 in 0 W/m2
03:50 60.6 °F 57.3 °F 29.82 in NE 3 mph 3 mph 89% 0.00 in 0 W/m2
03:55 60.5 °F 57.2 °F 29.82 in North 3 mph 4 mph 89% 0.00 in 0 W/m2
04:00 60.5 °F 57.2 °F 29.82 in NNE 3 mph 3 mph 89% 0.00 in 0 W/m2
04:05 60.5 °F 57.2 °F 29.82 in NNW 3 mph 3 mph 89% 0.00 in 0 W/m2
04:10 60.5 °F 57.2 °F 29.83 in North 3 mph 3 mph 89% 0.00 in 0 W/m2
04:15 60.5 °F 57.2 °F 29.83 in NE 3 mph 3 mph 89% 0.00 in 0 W/m2
04:20 60.5 °F 57.2 °F 29.83 in NE 3 mph 3 mph 89% 0.00 in 0 W/m2
04:25 60.5 °F 57.2 °F 29.83 in NNE 3 mph 3 mph 89% 0.00 in 0 W/m2
04:30 60.4 °F 57.1 °F 29.83 in ENE 3 mph 3 mph 89% 0.00 in 0 W/m2
04:35 60.4 °F 57.1 °F 29.83 in ENE 2 mph 3 mph 89% 0.00 in 0 W/m2
04:40 60.4 °F 57.1 °F 29.82 in SSE 2 mph 2 mph 89% 0.00 in 0 W/m2
04:45 60.4 °F 57.1 °F 29.82 in ENE 2 mph 2 mph 89% 0.00 in 0 W/m2
04:50 60.4 °F 57.1 °F 29.82 in ENE 2 mph 2 mph 89% 0.00 in 0 W/m2
04:55 60.4 °F 57.1 °F 29.83 in ENE 2 mph 4 mph 89% 0.00 in 0 W/m2
05:00 60.3 °F 57 °F 29.83 in East 2 mph 2 mph 89% 0.00 in 0 W/m2
05:05 60.3 °F 57.4 °F 29.83 in ENE 2 mph 4 mph 90% 0.00 in 0 W/m2
05:10 60.3 °F 57.4 °F 29.83 in East 2 mph 2 mph 90% 0.00 in 0 W/m2
05:15 60.2 °F 57.3 °F 29.83 in East 2 mph 3 mph 90% 0.00 in 0 W/m2
05:20 60.2 °F 57.3 °F 29.84 in NNE 3 mph 3 mph 90% 0.00 in 0 W/m2
05:25 60.2 °F 57.3 °F 29.84 in East 3 mph 4 mph 90% 0.00 in 0 W/m2
05:30 60.2 °F 57.3 °F 29.84 in East 2 mph 2 mph 90% 0.00 in 0 W/m2
05:35 60.3 °F 57.4 °F 29.84 in NE 2 mph 2 mph 90% 0.00 in 0 W/m2
05:40 60.3 °F 57.4 °F 29.84 in NE 2 mph 2 mph 90% 0.00 in 0 W/m2
05:45 60.4 °F 57.5 °F 29.84 in West 2 mph 2 mph 90% 0.00 in 0 W/m2
05:50 60.4 °F 57.5 °F 29.85 in NNE 2 mph 2 mph 90% 0.00 in 0 W/m2
05:55 60.5 °F 57.6 °F 29.85 in North 2 mph 3 mph 90% 0.00 in 0 W/m2
06:00 60.6 °F 57.7 °F 29.85 in NNW 2 mph 2 mph 90% 0.00 in 5 W/m2
06:05 60.7 °F 57.7 °F 29.85 in SW 2 mph 2 mph 90% 0.00 in 7 W/m2
06:10 60.7 °F 58.1 °F 29.86 in NNE 2 mph 2 mph 91% 0.00 in 9 W/m2
06:15 60.7 °F 57.7 °F 29.85 in NE 1 mph 2 mph 90% 0.00 in 12 W/m2
06:20 60.7 °F 57.7 °F 29.85 in ENE 2 mph 2 mph 90% 0.00 in 18 W/m2
06:25 60.9 °F 57.9 °F 29.85 in SE 2 mph 2 mph 90% 0.00 in 18 W/m2
06:30 60.9 °F 57.9 °F 29.85 in NE 2 mph 2 mph 90% 0.00 in 23 W/m2
06:35 60.9 °F 57.9 °F 29.85 in ENE 2 mph 2 mph 90% 0.00 in 23 W/m2
06:40 60.9 °F 57.9 °F 29.85 in North 2 mph 3 mph 90% 0.00 in 30 W/m2
06:45 60.9 °F 57.9 °F 29.85 in NE 2 mph 3 mph 90% 0.00 in 28 W/m2
06:50 61 °F 58 °F 29.85 in NE 2 mph 2 mph 90% 0.00 in 32 W/m2
06:55 61.1 °F 58.1 °F 29.85 in NNW 2 mph 3 mph 90% 0.00 in 39 W/m2
07:00 61.1 °F 58.1 °F 29.84 in East 2 mph 3 mph 90% 0.00 in 46 W/m2
07:05 61.2 °F 58.6 °F 29.84 in NE 2 mph 3 mph 91% 0.00 in 49 W/m2
07:10 61.2 °F 58.6 °F 29.85 in East 2 mph 4 mph 91% 0.00 in 47 W/m2
07:15 61.2 °F 58.6 °F 29.85 in NE 3 mph 4 mph 91% 0.00 in 70 W/m2
07:20 61.3 °F 58.3 °F 29.85 in East 2 mph 2 mph 90% 0.00 in 81 W/m2
07:25 61.3 °F 58.3 °F 29.85 in ENE 2 mph 2 mph 90% 0.00 in 54 W/m2
07:30 61.3 °F 58.3 °F 29.86 in NNW 2 mph 2 mph 90% 0.00 in 90 W/m2
07:35 61.4 °F 58.4 °F 29.86 in NE 3 mph 3 mph 90% 0.00 in 86 W/m2
07:40 61.4 °F 58.4 °F 29.86 in ESE 2 mph 4 mph 90% 0.00 in 97 W/m2
07:45 61.4 °F 58.4 °F 29.87 in ENE 2 mph 4 mph 90% 0.00 in 83 W/m2
07:50 61.5 °F 58.5 °F 29.87 in North 2 mph 2 mph 90% 0.00 in 62 W/m2
07:55 61.6 °F 58.6 °F 29.87 in NNE 2 mph 3 mph 90% 0.00 in 65 W/m2
08:00 61.6 °F 58.6 °F 29.87 in NE 3 mph 3 mph 90% 0.00 in 69 W/m2
08:05 61.6 °F 58.6 °F 29.87 in NNE 2 mph 3 mph 90% 0.00 in 97 W/m2
08:10 61.7 °F 58.7 °F 29.87 in North 2 mph 2 mph 90% 0.00 in 93 W/m2
08:15 61.7 °F 58.7 °F 29.86 in NE 2 mph 2 mph 90% 0.00 in 127 W/m2
08:20 61.8 °F 58.5 °F 29.87 in NE 2 mph 2 mph 89% 0.00 in 151 W/m2
08:25 61.8 °F 58.5 °F 29.87 in NE 2 mph 2 mph 89% 0.00 in 125 W/m2
08:30 61.8 °F 58.5 °F 29.87 in NNE 2 mph 2 mph 89% 0.00 in 111 W/m2
08:35 61.8 °F 58.5 °F 29.87 in NE 2 mph 3 mph 89% 0.00 in 105 W/m2
08:40 61.7 °F 58.1 °F 29.87 in North 2 mph 2 mph 88% 0.00 in 97 W/m2
08:45 61.7 °F 58.1 °F 29.86 in NE 2 mph 5 mph 88% 0.00 in 121 W/m2
08:50 61.8 °F 58.2 °F 29.86 in NNW 2 mph 2 mph 88% 0.00 in 195 W/m2
08:55 61.8 °F 58.2 °F 29.86 in ENE 3 mph 3 mph 88% 0.00 in 425 W/m2
09:00 61.8 °F 58.2 °F 29.86 in NE 2 mph 3 mph 88% 0.00 in 373 W/m2
09:05 61.9 °F 58.3 °F 29.85 in North 2 mph 3 mph 88% 0.00 in 339 W/m2
09:10 62 °F 58.4 °F 29.85 in East 2 mph 2 mph 88% 0.00 in 190 W/m2
09:15 62.1 °F 58.5 °F 29.85 in NE 2 mph 2 mph 88% 0.00 in 316 W/m2
09:20 62.2 °F 58.6 °F 29.85 in NE 2 mph 2 mph 88% 0.00 in 288 W/m2
09:25 62.3 °F 58.4 °F 29.85 in NE 2 mph 2 mph 87% 0.00 in 371 W/m2
09:30 62.5 °F 58.6 °F 29.85 in NE 2 mph 4 mph 87% 0.00 in 578 W/m2
09:35 62.7 °F 59.1 °F 29.85 in NNW 2 mph 4 mph 88% 0.00 in 624 W/m2
09:40 63 °F 59.1 °F 29.85 in NNE 3 mph 3 mph 87% 0.00 in 292 W/m2
09:45 63.1 °F 59.2 °F 29.85 in NNE 2 mph 3 mph 87% 0.00 in 392 W/m2
09:50 63.3 °F 59.4 °F 29.85 in ENE 2 mph 2 mph 87% 0.00 in 564 W/m2
09:55 63.5 °F 59.6 °F 29.84 in SSE 1 mph 2 mph 87% 0.00 in 580 W/m2
10:00 63.9 °F 59.6 °F 29.84 in NE 1 mph 1 mph 86% 0.00 in 613 W/m2
10:05 64.1 °F 59.8 °F 29.84 in NNE 1 mph 1 mph 86% 0.00 in 710 W/m2
10:10 64.3 °F 60 °F 29.84 in North 2 mph 4 mph 86% 0.00 in 555 W/m2
10:15 64.6 °F 60 °F 29.84 in NNW 3 mph 4 mph 85% 0.00 in 503 W/m2
10:20 64.8 °F 60.2 °F 29.84 in North 4 mph 5 mph 85% 0.00 in 294 W/m2
10:25 64.8 °F 59.9 °F 29.84 in North 4 mph 5 mph 84% 0.00 in 394 W/m2
10:30 64.9 °F 59.9 °F 29.84 in North 3 mph 3 mph 84% 0.00 in 448 W/m2
10:35 64.9 °F 59.9 °F 29.85 in NW 4 mph 4 mph 84% 0.00 in 631 W/m2
10:40 65 °F 60 °F 29.85 in NE 4 mph 4 mph 84% 0.00 in 636 W/m2
10:45 65 °F 60 °F 29.85 in NNE 4 mph 7 mph 84% 0.00 in 837 W/m2
10:50 65.1 °F 60.1 °F 29.85 in NNW 5 mph 5 mph 84% 0.00 in 571 W/m2
10:55 65.1 °F 60.1 °F 29.85 in NE 5 mph 5 mph 84% 0.00 in 538 W/m2
11:00 65.1 °F 60.1 °F 29.85 in NNW 4 mph 6 mph 84% 0.00 in 696 W/m2
11:05 65.3 °F 60.3 °F 29.85 in ENE 4 mph 6 mph 84% 0.00 in 436 W/m2
11:10 65.4 °F 60.1 °F 29.85 in NE 4 mph 4 mph 83% 0.00 in 336 W/m2
11:15 65.4 °F 60.1 °F 29.85 in NNW 3 mph 4 mph 83% 0.00 in 418 W/m2
11:20 65.4 °F 60.1 °F 29.85 in NNE 3 mph 4 mph 83% 0.00 in 577 W/m2
11:25 65.4 °F 60.1 °F 29.85 in NNE 4 mph 4 mph 83% 0.00 in 448 W/m2
11:30 65.5 °F 60.2 °F 29.85 in NE 3 mph 3 mph 83% 0.00 in 689 W/m2
11:35 65.6 °F 60.3 °F 29.85 in NNW 3 mph 4 mph 83% 0.00 in 693 W/m2
11:40 65.6 °F 60.3 °F 29.85 in East 3 mph 3 mph 83% 0.00 in 555 W/m2
11:45 65.7 °F 60.4 °F 29.85 in North 3 mph 3 mph 83% 0.00 in 606 W/m2
11:50 65.7 °F 60.4 °F 29.85 in East 4 mph 4 mph 83% 0.00 in 740 W/m2
11:55 65.8 °F 60.5 °F 29.85 in NNW 4 mph 4 mph 83% 0.00 in 798 W/m2
12:00 65.8 °F 60.5 °F 29.85 in North 4 mph 4 mph 83% 0.00 in 819 W/m2
12:05 66 °F 60.7 °F 29.85 in ENE 3 mph 4 mph 83% 0.00 in 833 W/m2
12:10 66.1 °F 60.4 °F 29.85 in NNE 3 mph 4 mph 82% 0.00 in 823 W/m2
12:15 66.3 °F 60.6 °F 29.85 in ENE 3 mph 5 mph 82% 0.00 in 823 W/m2
12:20 66.4 °F 60.7 °F 29.85 in ENE 4 mph 6 mph 82% 0.00 in 821 W/m2
12:25 66.7 °F 61 °F 29.85 in NE 3 mph 6 mph 82% 0.00 in 833 W/m2
12:30 66.8 °F 60.8 °F 29.85 in NE 4 mph 4 mph 81% 0.00 in 853 W/m2
12:35 67.2 °F 61.2 °F 29.85 in NNE 4 mph 5 mph 81% 0.00 in 759 W/m2
12:40 67.6 °F 61.2 °F 29.85 in NE 3 mph 3 mph 80% 0.00 in 856 W/m2
12:45 68 °F 61.2 °F 29.85 in ESE 3 mph 3 mph 79% 0.00 in 853 W/m2
12:50 68.1 °F 61.3 °F 29.85 in East 3 mph 3 mph 79% 0.00 in 849 W/m2
12:55 67.9 °F 61.1 °F 29.85 in NNE 3 mph 3 mph 79% 0.00 in 846 W/m2
13:00 68.4 °F 61.6 °F 29.85 in NNW 3 mph 4 mph 79% 0.00 in 858 W/m2
13:05 68.2 °F 61.4 °F 29.85 in NNE 3 mph 4 mph 79% 0.00 in 854 W/m2
13:10 68.6 °F 61.8 °F 29.85 in NNE 3 mph 3 mph 79% 0.00 in 854 W/m2
13:15 69.2 °F 62 °F 29.85 in NNE 3 mph 3 mph 78% 0.00 in 847 W/m2
13:20 68.8 °F 61.7 °F 29.85 in NE 3 mph 3 mph 78% 0.00 in 833 W/m2
13:25 68.7 °F 61.9 °F 29.85 in ENE 4 mph 4 mph 79% 0.00 in 830 W/m2
13:30 69.5 °F 62.3 °F 29.84 in East 3 mph 3 mph 78% 0.00 in 819 W/m2
13:35 69.7 °F 62.2 °F 29.84 in NE 2 mph 4 mph 77% 0.00 in 849 W/m2
13:40 70.1 °F 62.6 °F 29.84 in NNE 3 mph 3 mph 77% 0.00 in 817 W/m2
13:45 70.4 °F 62.5 °F 29.84 in ENE 3 mph 3 mph 76% 0.00 in 846 W/m2
13:50 69.5 °F 62 °F 29.84 in WNW 3 mph 4 mph 77% 0.00 in 881 W/m2
13:55 68.9 °F 61.8 °F 29.84 in NNW 3 mph 4 mph 78% 0.00 in 867 W/m2
14:00 68.6 °F 61.5 °F 29.84 in NNE 3 mph 3 mph 78% 0.00 in 756 W/m2
14:05 68.8 °F 61.7 °F 29.84 in NE 3 mph 3 mph 78% 0.00 in 858 W/m2
14:10 68.8 °F 62 °F 29.83 in NE 3 mph 4 mph 79% 0.00 in 863 W/m2
14:15 69 °F 62.2 °F 29.83 in North 3 mph 4 mph 79% 0.00 in 856 W/m2
14:20 69.2 °F 62 °F 29.83 in NE 3 mph 4 mph 78% 0.00 in 853 W/m2
14:25 69.1 °F 61.9 °F 29.83 in NE 3 mph 4 mph 78% 0.00 in 838 W/m2
14:30 68.9 °F 61.8 °F 29.83 in SSE 3 mph 3 mph 78% 0.00 in 844 W/m2
14:35 68.8 °F 62 °F 29.83 in NE 3 mph 3 mph 79% 0.00 in 835 W/m2
14:40 68.8 °F 62 °F 29.83 in NE 3 mph 4 mph 79% 0.00 in 835 W/m2
14:45 68.9 °F 62.1 °F 29.83 in North 3 mph 4 mph 79% 0.00 in 828 W/m2
14:50 69.1 °F 62.3 °F 29.83 in ENE 3 mph 3 mph 79% 0.00 in 823 W/m2
14:55 69.3 °F 62.5 °F 29.83 in South 3 mph 3 mph 79% 0.00 in 819 W/m2
15:00 69.5 °F 62.7 °F 29.83 in NNE 2 mph 2 mph 79% 0.00 in 816 W/m2
15:05 69.7 °F 62.5 °F 29.83 in WNW 3 mph 3 mph 78% 0.00 in 809 W/m2
15:10 69.8 °F 62.6 °F 29.83 in East 3 mph 3 mph 78% 0.00 in 807 W/m2
15:15 70.2 °F 63.4 °F 29.83 in ENE 3 mph 3 mph 79% 0.00 in 823 W/m2
15:20 70.3 °F 62.7 °F 29.83 in NE 3 mph 3 mph 77% 0.00 in 599 W/m2
15:25 70.1 °F 62.9 °F 29.82 in ENE 3 mph 4 mph 78% 0.00 in 868 W/m2
15:30 69.8 °F 62.3 °F 29.82 in East 3 mph 3 mph 77% 0.00 in 817 W/m2
15:35 69.7 °F 62.5 °F 29.82 in ENE 3 mph 3 mph 78% 0.00 in 874 W/m2
15:40 69.6 °F 62.8 °F 29.82 in ENE 2 mph 3 mph 79% 0.00 in 260 W/m2
15:45 69.6 °F 62.8 °F 29.82 in NE 3 mph 4 mph 79% 0.00 in 777 W/m2
15:50 69.7 °F 62.9 °F 29.82 in NNE 3 mph 3 mph 79% 0.00 in 754 W/m2
15:55 69.8 °F 62.6 °F 29.81 in ESE 3 mph 3 mph 78% 0.00 in 749 W/m2
16:00 69.7 °F 62.5 °F 29.81 in NE 3 mph 3 mph 78% 0.00 in 731 W/m2
16:05 69.8 °F 62.6 °F 29.81 in NE 3 mph 8 mph 78% 0.00 in 710 W/m2
16:10 69.9 °F 63.1 °F 29.82 in SE 3 mph 3 mph 79% 0.00 in 714 W/m2
16:15 70.2 °F 63.4 °F 29.82 in NNE 3 mph 3 mph 79% 0.00 in 719 W/m2
16:20 70.7 °F 63.9 °F 29.81 in ENE 3 mph 3 mph 79% 0.00 in 747 W/m2
16:25 71.2 °F 63.2 °F 29.82 in NW 3 mph 3 mph 76% 0.00 in 424 W/m2
16:30 71.3 °F 63 °F 29.82 in NNE 3 mph 3 mph 75% 0.00 in 415 W/m2
16:35 71 °F 62.7 °F 29.81 in North 3 mph 5 mph 75% 0.00 in 308 W/m2
16:40 70.4 °F 62.1 °F 29.81 in ENE 3 mph 4 mph 75% 0.00 in 341 W/m2
16:45 70 °F 62.1 °F 29.81 in North 3 mph 4 mph 76% 0.00 in 392 W/m2
16:50 69.7 °F 61.8 °F 29.81 in NNE 3 mph 3 mph 76% 0.00 in 329 W/m2
16:55 69.7 °F 62.2 °F 29.81 in WSW 3 mph 3 mph 77% 0.00 in 443 W/m2
17:00 69.7 °F 62.2 °F 29.81 in NE 2 mph 2 mph 77% 0.00 in 315 W/m2
17:05 69.7 °F 62.5 °F 29.80 in ENE 3 mph 3 mph 78% 0.00 in 504 W/m2
Sand Point, Michigan, USA
Compliments of Weather Underground - 2 mb